sat.trackr.live / text

‹ back to catalog

STARLINK-36332

NORAD 67862 · 2026-034N

PAYLOAD ACTIVE UNKNOWN

§ Identity

Operator
Country
US
Launch date
2026-02-20
Launch site
AFETR
Launch vehicle
Mass (kg)
RCS (m²)

Purposes: comms

External: N2YO · Heavens-Above · Gunter

§ Orbital elements

Epoch: 2026-09-19T07:41:02.408928Z

Period
93.85 min
Inclination
53.1605°
Eccentricity
0.0001275
Mean motion
15.34330757 rev/d
Perigee alt
462.0 km
Apogee alt
463.8 km
Semi-major
6,841.0 km
B*
2.9885e-4
RAAN
23.2740°
Arg perigee
103.0103°
Mean anomaly
257.1042°
Rev number
3,370

§ Raw data

STARLINK-363321 67862U 26034N   26262.32016677  .00009712  00000+0  29885-3 0  99972 67862  53.1605  23.2740 0001275 103.0103 257.1042 15.34330757 33704

JSON: /api/v1/satellites/67862 · /tle

For live sub-satellite position, see the globe view (requires WebGL).

§ Visibility from observer

Set your observer location to see the next 7 days of passes ≥ 10°. The values pass through the URL so the page stays shareable.

No JS? Fill the form by hand. The geolocation button needs JavaScript.